Location: Chena
(64.8152°N, 147.9227°W)
Time: 01:19:51
(UTC+00:00)

Vanguard 2 - Pass Details

Date: 08 March 2021
Orbit: 552 x 2938 km, 32.9° (Epoch: 10 April)

Event Time Altitude Azimuth Distance (km) Brightness Sun altitude
Rises 13:27:25 0° 215° (SW) 5,544 - -19.8°
Exits shadow 13:32:44 - 197° (SSW) 5,029 11.2 -19.3°
Reaches altitude 10° 13:33:18 10° 195° (SSW) 4,997 11.2 -19.3°
Maximum altitude 13:40:07 15° 167° (SSE) 4,991 11.5 -18.7°
Drops below altitude 10° 13:47:44 10° 140° (SE) 5,679 12.1 -18.0°
Sets 13:55:22 0° 122° (ESE) 6,792 12.8 -17.3°
